AFL769 ULLI-UUEE

Flight info

Callsign AFL769
Flight time 1h 0m
Altitude 39000
Route SUGIN1A SUGIN T873 NIRGI T73 NAMIN NAMIN3F
Aircraft A20N/M-V/N

Departure

Time 2026-05-04 19:05
Airport Pulkovo Airport (ULLI)

Arrival

Time 2026-05-04 20:05
Airport Sheremetyevo International Airport (UUEE)
Time Latitude Longitude Altitude Speed Heading
2026-05-04 18:33 59.80230 30.26548 83 ft 0 kts 106°
2026-05-04 18:55 59.80226 30.26568 83 ft 1 kts 107°
2026-05-04 18:55 59.80223 30.26599 83 ft 2 kts 95°
2026-05-04 18:56 59.80230 30.26644 83 ft 4 kts 50°
2026-05-04 18:56 59.80266 30.26677 82 ft 6 kts 17°
2026-05-04 18:56 59.80330 30.26715 81 ft 13 kts 16°
2026-05-04 18:56 59.80400 30.26787 79 ft 10 kts 88°
2026-05-04 18:57 59.80386 30.26928 80 ft 10 kts 105°
2026-05-04 18:57 59.80365 30.27075 80 ft 11 kts 106°
2026-05-04 18:57 59.80341 30.27232 79 ft 12 kts 106°
2026-05-04 18:57 59.80313 30.27419 78 ft 14 kts 107°
2026-05-04 18:58 59.80284 30.27613 78 ft 14 kts 106°
2026-05-04 18:58 59.80254 30.27820 76 ft 16 kts 106°
2026-05-04 18:58 59.80226 30.27994 76 ft 9 kts 110°
2026-05-04 18:58 59.80206 30.28142 74 ft 12 kts 105°
2026-05-04 18:59 59.80180 30.28314 74 ft 13 kts 107°
2026-05-04 18:59 59.80152 30.28496 74 ft 13 kts 105°
2026-05-04 18:59 59.80125 30.28686 74 ft 14 kts 106°
2026-05-04 18:59 59.80093 30.28901 72 ft 18 kts 107°
2026-05-04 19:00 59.80055 30.29153 71 ft 19 kts 106°
2026-05-04 19:00 59.80019 30.29400 71 ft 15 kts 105°
2026-05-04 19:00 59.79989 30.29599 71 ft 14 kts 107°
2026-05-04 19:00 59.79960 30.29788 74 ft 13 kts 106°
2026-05-04 19:01 59.79937 30.29966 74 ft 13 kts 95°
2026-05-04 19:01 59.79969 30.30096 74 ft 10 kts 45°
2026-05-04 19:01 59.79989 30.30135 74 ft 0 kts 46°
2026-05-04 19:02 59.79989 30.30137 74 ft 0 kts 46°
2026-05-04 19:02 59.80011 30.30184 74 ft 9 kts 47°
2026-05-04 19:02 59.80072 30.30286 74 ft 12 kts 19°
2026-05-04 19:03 59.80125 30.30236 74 ft 6 kts 289°
2026-05-04 19:03 59.80129 30.30206 74 ft 0 kts 286°
2026-05-04 19:04 59.80133 30.30177 74 ft 15 kts 286°
2026-05-04 19:04 59.80246 30.29422 71 ft 94 kts 286°
2026-05-04 19:04 59.80497 30.27747 80 ft 154 kts 285°
2026-05-04 19:04 59.80823 30.25552 530 ft 167 kts 284°
2026-05-04 19:05 59.81144 30.23375 1284 ft 165 kts 284°
2026-05-04 19:05 59.81463 30.21215 2010 ft 165 kts 284°
2026-05-04 19:05 59.81797 30.18932 2441 ft 182 kts 284°
2026-05-04 19:05 59.82174 30.16354 2877 ft 203 kts 284°
2026-05-04 19:06 59.82584 30.13565 3318 ft 222 kts 284°
2026-05-04 19:06 59.83031 30.10533 3450 ft 228 kts 284°
2026-05-04 19:06 59.83480 30.07487 3453 ft 228 kts 284°
2026-05-04 19:06 59.83922 30.04481 3458 ft 228 kts 284°
2026-05-04 19:07 59.84184 30.01472 3443 ft 225 kts 263°
2026-05-04 19:07 59.83702 29.98560 3450 ft 223 kts 234°
2026-05-04 19:07 59.82529 29.96505 3455 ft 225 kts 206°
2026-05-04 19:07 59.81056 29.95504 3464 ft 226 kts 197°
2026-05-04 19:08 59.79534 29.94669 3474 ft 228 kts 197°
2026-05-04 19:08 59.77992 29.93826 3894 ft 235 kts 197°
2026-05-04 19:08 59.76435 29.92967 4962 ft 232 kts 195°
2026-05-04 19:08 59.74794 29.92829 5708 ft 248 kts 169°
2026-05-04 19:09 59.73208 29.94463 6287 ft 273 kts 139°
2026-05-04 19:09 59.72251 29.97414 7041 ft 286 kts 112°
2026-05-04 19:09 59.71663 30.01257 7994 ft 289 kts 108°
2026-05-04 19:09 59.71147 30.05075 8813 ft 295 kts 108°
2026-05-04 19:10 59.70603 30.09030 9645 ft 300 kts 108°
2026-05-04 19:10 59.70045 30.13053 10323 ft 311 kts 107°
2026-05-04 19:10 59.69625 30.17433 10769 ft 331 kts 99°
2026-05-04 19:10 59.69447 30.22014 11170 ft 350 kts 94°
2026-05-04 19:11 59.69374 30.26910 11730 ft 362 kts 93°
2026-05-04 19:11 59.69269 30.31767 12473 ft 366 kts 96°
2026-05-04 19:11 59.68975 30.36746 13238 ft 368 kts 101°
2026-05-04 19:11 59.68497 30.41749 13976 ft 372 kts 103°
2026-05-04 19:12 59.67951 30.46871 14708 ft 377 kts 103°
2026-05-04 19:12 59.66857 30.56992 16086 ft 385 kts 103°
2026-05-04 19:12 59.66309 30.62068 16745 ft 389 kts 103°
2026-05-04 19:13 59.65757 30.67188 17388 ft 393 kts 103°
2026-05-04 19:13 59.65257 30.72525 18031 ft 397 kts 101°
2026-05-04 19:13 59.64803 30.77950 18663 ft 401 kts 100°
2026-05-04 19:13 59.64353 30.83410 19273 ft 405 kts 100°
2026-05-04 19:14 59.63909 30.88799 19859 ft 409 kts 100°
2026-05-04 19:14 59.63438 30.94481 20459 ft 412 kts 100°
2026-05-04 19:14 59.62962 31.00169 21040 ft 416 kts 99°
2026-05-04 19:14 59.62484 31.05846 21598 ft 420 kts 99°
2026-05-04 19:15 59.62001 31.11565 22141 ft 423 kts 99°
2026-05-04 19:15 59.61508 31.17357 22669 ft 427 kts 99°
2026-05-04 19:15 59.61013 31.23144 23182 ft 431 kts 99°
2026-05-04 19:15 59.60507 31.29029 23690 ft 434 kts 99°
2026-05-04 19:16 59.59992 31.34968 24188 ft 437 kts 99°
2026-05-04 19:16 59.59475 31.40904 24667 ft 440 kts 99°
2026-05-04 19:16 59.58950 31.46912 25125 ft 444 kts 100°
2026-05-04 19:16 59.58423 31.52916 25563 ft 447 kts 99°
2026-05-04 19:17 59.57885 31.59013 25999 ft 449 kts 99°
2026-05-04 19:17 59.57348 31.65044 26424 ft 452 kts 100°
2026-05-04 19:17 59.56801 31.71166 26831 ft 455 kts 100°
2026-05-04 19:17 59.56253 31.77269 27219 ft 457 kts 100°
2026-05-04 19:18 59.55698 31.83420 27594 ft 460 kts 100°
2026-05-04 19:18 59.55127 31.89685 27955 ft 463 kts 100°
2026-05-04 19:18 59.54550 31.95982 28325 ft 466 kts 100°
2026-05-04 19:18 59.53899 32.02246 28678 ft 468 kts 106°
2026-05-04 19:19 59.52799 32.08314 29029 ft 469 kts 116°
2026-05-04 19:19 59.51204 32.13945 29490 ft 466 kts 126°
2026-05-04 19:19 59.49183 32.18946 29989 ft 462 kts 135°
2026-05-04 19:19 59.46941 32.23435 30460 ft 460 kts 137°
2026-05-04 19:20 59.44646 32.27837 30871 ft 460 kts 137°
2026-05-04 19:20 59.42353 32.32212 31278 ft 460 kts 137°
2026-05-04 19:20 59.40075 32.36579 31689 ft 460 kts 137°
2026-05-04 19:20 59.37774 32.41009 32105 ft 459 kts 137°
2026-05-04 19:21 59.35500 32.45398 32510 ft 458 kts 137°
2026-05-04 19:21 59.33237 32.49767 32889 ft 457 kts 137°
2026-05-04 19:21 59.30988 32.54107 33252 ft 456 kts 137°
2026-05-04 19:21 59.28709 32.58499 33614 ft 456 kts 137°
2026-05-04 19:22 59.26482 32.62785 33956 ft 455 kts 137°
2026-05-04 19:22 59.24245 32.67084 34283 ft 454 kts 138°
2026-05-04 19:22 59.22000 32.71403 34600 ft 454 kts 138°
2026-05-04 19:22 59.19758 32.75706 34908 ft 453 kts 138°
2026-05-04 19:23 59.17525 32.79980 35204 ft 452 kts 138°
2026-05-04 19:23 59.15272 32.84277 35486 ft 452 kts 138°
2026-05-04 19:23 59.13023 32.88557 35760 ft 451 kts 138°
2026-05-04 19:23 59.10789 32.92804 36021 ft 451 kts 138°
2026-05-04 19:24 59.08530 32.97089 36268 ft 451 kts 138°
2026-05-04 19:24 59.06285 33.01336 36491 ft 451 kts 138°
2026-05-04 19:24 59.04050 33.05558 36698 ft 451 kts 139°
2026-05-04 19:24 59.01785 33.09827 36891 ft 452 kts 139°
2026-05-04 19:25 58.99501 33.14124 37050 ft 453 kts 139°
2026-05-04 19:25 58.97224 33.18395 37199 ft 454 kts 139°
2026-05-04 19:25 58.94953 33.22645 37352 ft 455 kts 139°
2026-05-04 19:25 58.92687 33.26878 37511 ft 456 kts 139°
2026-05-04 19:26 58.90398 33.31146 37660 ft 456 kts 139°
2026-05-04 19:26 58.88084 33.35431 37798 ft 457 kts 139°
2026-05-04 19:26 58.85775 33.39684 37930 ft 458 kts 139°
2026-05-04 19:26 58.83477 33.43914 38055 ft 459 kts 139°
2026-05-04 19:27 58.81136 33.48226 38171 ft 460 kts 139°
2026-05-04 19:27 58.78815 33.52500 38288 ft 461 kts 139°
2026-05-04 19:27 58.76514 33.56734 38405 ft 462 kts 139°
2026-05-04 19:27 58.74177 33.61031 38519 ft 462 kts 139°
2026-05-04 19:28 58.71856 33.65289 38534 ft 463 kts 140°
2026-05-04 19:28 58.67174 33.73886 38543 ft 464 kts 140°
2026-05-04 19:29 58.62499 33.82429 38545 ft 463 kts 140°
2026-05-04 19:29 58.57791 33.90985 38546 ft 464 kts 140°
2026-05-04 19:30 58.53108 33.99458 38545 ft 463 kts 140°
2026-05-04 19:30 58.48437 34.07875 38545 ft 463 kts 140°
2026-05-04 19:31 58.43712 34.16358 38545 ft 463 kts 140°
2026-05-04 19:31 58.39005 34.24779 38545 ft 463 kts 140°
2026-05-04 19:32 58.34259 34.33238 38545 ft 463 kts 140°
2026-05-04 19:32 58.29565 34.41575 38556 ft 464 kts 140°
2026-05-04 19:33 58.24853 34.49912 38605 ft 464 kts 140°
2026-05-04 19:33 58.20073 34.58259 38697 ft 463 kts 142°
2026-05-04 19:34 58.15125 34.66127 38774 ft 463 kts 143°
2026-05-04 19:34 58.10179 34.73978 38817 ft 463 kts 143°
2026-05-04 19:35 58.05245 34.81775 38835 ft 463 kts 143°
2026-05-04 19:35 58.00286 34.89566 38841 ft 463 kts 143°
2026-05-04 19:36 57.95343 34.97302 38843 ft 461 kts 142°
2026-05-04 19:36 57.90407 35.04999 38843 ft 460 kts 142°
2026-05-04 19:37 57.85480 35.12633 38844 ft 459 kts 142°
2026-05-04 19:37 57.80538 35.20263 38844 ft 459 kts 142°
2026-05-04 19:37 57.78088 35.24042 38608 ft 460 kts 142°
2026-05-04 19:38 57.75600 35.27877 38356 ft 457 kts 142°
2026-05-04 19:38 57.73150 35.31651 38104 ft 454 kts 142°
2026-05-04 19:38 57.70703 35.35416 37851 ft 451 kts 142°
2026-05-04 19:38 57.68304 35.39100 37602 ft 449 kts 142°
2026-05-04 19:39 57.65897 35.42790 37350 ft 449 kts 142°
2026-05-04 19:39 57.63464 35.46507 37043 ft 448 kts 142°
2026-05-04 19:39 57.61049 35.50189 36658 ft 449 kts 142°
2026-05-04 19:39 57.58623 35.53881 36149 ft 450 kts 142°
2026-05-04 19:40 57.56204 35.57557 35538 ft 451 kts 142°
2026-05-04 19:40 57.53758 35.61276 34907 ft 453 kts 142°
2026-05-04 19:40 57.51290 35.65026 34261 ft 455 kts 143°
2026-05-04 19:40 57.48849 35.68738 33621 ft 456 kts 143°
2026-05-04 19:41 57.46393 35.72472 32964 ft 457 kts 143°
2026-05-04 19:41 57.43917 35.76227 32300 ft 459 kts 143°
2026-05-04 19:41 57.41447 35.79964 31626 ft 460 kts 142°
2026-05-04 19:41 57.38952 35.83728 30936 ft 461 kts 143°
2026-05-04 19:42 57.36470 35.87463 30244 ft 462 kts 143°
2026-05-04 19:42 57.33988 35.91190 29530 ft 463 kts 142°
2026-05-04 19:42 57.31473 35.94964 28797 ft 465 kts 142°
2026-05-04 19:42 57.28965 35.98718 28069 ft 465 kts 142°
2026-05-04 19:43 57.26442 36.02488 27573 ft 459 kts 142°
2026-05-04 19:43 57.23986 36.06153 27075 ft 455 kts 142°
2026-05-04 19:43 57.21537 36.09801 26570 ft 450 kts 142°
2026-05-04 19:43 57.19109 36.13410 26065 ft 446 kts 142°
2026-05-04 19:44 57.16689 36.17002 25559 ft 442 kts 142°
2026-05-04 19:44 57.14311 36.20525 25061 ft 438 kts 142°
2026-05-04 19:44 57.11925 36.24055 24555 ft 435 kts 142°
2026-05-04 19:44 57.09566 36.27538 24051 ft 432 kts 142°
2026-05-04 19:45 57.07255 36.30942 23558 ft 429 kts 142°
2026-05-04 19:45 57.04928 36.34363 23059 ft 426 kts 142°
2026-05-04 19:45 57.02595 36.37781 22556 ft 423 kts 142°
2026-05-04 19:45 57.00296 36.41110 22062 ft 420 kts 142°
2026-05-04 19:46 56.98024 36.44385 21575 ft 417 kts 142°
2026-05-04 19:46 56.95726 36.47698 21072 ft 414 kts 142°
2026-05-04 19:46 56.93483 36.50928 20577 ft 412 kts 142°
2026-05-04 19:46 56.91233 36.54163 20079 ft 409 kts 142°
2026-05-04 19:47 56.89009 36.57354 19591 ft 406 kts 142°
2026-05-04 19:47 56.86787 36.60540 19101 ft 403 kts 142°
2026-05-04 19:47 56.84572 36.63730 18611 ft 400 kts 142°
2026-05-04 19:47 56.82394 36.66876 18133 ft 396 kts 143°
2026-05-04 19:48 56.80625 36.69442 17739 ft 394 kts 143°
2026-05-04 19:48 56.78498 36.72521 17275 ft 390 kts 143°
2026-05-04 19:48 56.76394 36.75554 16814 ft 387 kts 143°
2026-05-04 19:48 56.74262 36.78618 16348 ft 384 kts 143°
2026-05-04 19:49 56.72192 36.81673 15892 ft 381 kts 140°
2026-05-04 19:49 56.70253 36.84920 15446 ft 378 kts 136°
2026-05-04 19:49 56.68381 36.88295 14977 ft 375 kts 136°
2026-05-04 19:49 56.66530 36.91562 14485 ft 373 kts 140°
2026-05-04 19:50 56.64521 36.94556 13976 ft 367 kts 143°
2026-05-04 19:50 56.62567 36.97308 13267 ft 355 kts 143°
2026-05-04 19:50 56.60594 37.00082 12103 ft 355 kts 143°
2026-05-04 19:50 56.58671 37.02816 11074 ft 351 kts 143°
2026-05-04 19:51 56.56759 37.05564 10115 ft 344 kts 143°
2026-05-04 19:51 56.54913 37.08228 9182 ft 337 kts 143°
2026-05-04 19:51 56.53118 37.10826 8551 ft 321 kts 143°
2026-05-04 19:51 56.51418 37.13289 8101 ft 302 kts 143°
2026-05-04 19:52 56.49826 37.15597 7675 ft 287 kts 143°
2026-05-04 19:52 56.48288 37.17824 7128 ft 277 kts 143°
2026-05-04 19:52 56.46823 37.19942 6784 ft 261 kts 143°
2026-05-04 19:52 56.45440 37.21941 6277 ft 254 kts 143°
2026-05-04 19:53 56.44054 37.23940 5676 ft 251 kts 143°
2026-05-04 19:53 56.42711 37.25874 5190 ft 246 kts 143°
2026-05-04 19:53 56.41372 37.27802 5000 ft 247 kts 143°
2026-05-04 19:53 56.40010 37.29760 4999 ft 247 kts 143°
2026-05-04 19:54 56.38660 37.31700 4994 ft 247 kts 143°
2026-05-04 19:54 56.37322 37.33622 4991 ft 247 kts 143°
2026-05-04 19:54 56.35960 37.35577 4990 ft 247 kts 143°
2026-05-04 19:54 56.34602 37.37524 4989 ft 247 kts 143°
2026-05-04 19:55 56.33256 37.39453 4989 ft 247 kts 143°
2026-05-04 19:55 56.31944 37.41332 4989 ft 247 kts 143°
2026-05-04 19:55 56.30579 37.43285 4989 ft 247 kts 143°
2026-05-04 19:55 56.29233 37.45209 4989 ft 247 kts 143°
2026-05-04 19:56 56.27878 37.47144 4989 ft 247 kts 143°
2026-05-04 19:56 56.26522 37.49078 4989 ft 247 kts 143°
2026-05-04 19:56 56.25184 37.50985 4989 ft 247 kts 143°
2026-05-04 19:56 56.23822 37.52922 4987 ft 245 kts 143°
2026-05-04 19:57 56.22516 37.54782 4985 ft 237 kts 143°
2026-05-04 19:57 56.21223 37.56618 4987 ft 236 kts 143°
2026-05-04 19:57 56.19935 37.58487 4967 ft 234 kts 140°
2026-05-04 19:57 56.18747 37.60509 4676 ft 234 kts 136°
2026-05-04 19:58 56.17605 37.62606 4328 ft 234 kts 135°
2026-05-04 19:58 56.16472 37.64708 4022 ft 233 kts 135°
2026-05-04 19:58 56.15361 37.66767 3721 ft 231 kts 136°
2026-05-04 19:58 56.14241 37.68842 3415 ft 230 kts 136°
2026-05-04 19:59 56.13165 37.70828 3421 ft 209 kts 136°
2026-05-04 19:59 56.12166 37.72667 3133 ft 204 kts 136°
2026-05-04 19:59 56.11161 37.74508 2997 ft 205 kts 136°
2026-05-04 19:59 56.10041 37.76012 2939 ft 201 kts 161°
2026-05-04 20:00 56.08693 37.75940 2594 ft 197 kts 203°
2026-05-04 20:00 56.07557 37.74498 2497 ft 201 kts 220°
2026-05-04 20:00 56.06507 37.72859 2494 ft 202 kts 220°
2026-05-04 20:00 56.05429 37.71220 2491 ft 202 kts 219°
2026-05-04 20:01 56.04355 37.69649 2533 ft 187 kts 218°
2026-05-04 20:01 56.03352 37.68218 2499 ft 179 kts 218°
2026-05-04 20:01 56.02416 37.66902 2449 ft 157 kts 217°
2026-05-04 20:01 56.01588 37.65748 2454 ft 147 kts 217°
2026-05-04 20:02 56.00811 37.64566 2468 ft 147 kts 228°
2026-05-04 20:02 56.00314 37.62956 2478 ft 148 kts 249°
2026-05-04 20:02 56.00030 37.61176 2484 ft 148 kts 253°
2026-05-04 20:02 55.99780 37.59381 2487 ft 148 kts 254°
2026-05-04 20:03 55.99540 37.57595 2503 ft 147 kts 255°
2026-05-04 20:03 55.99301 37.55810 2455 ft 147 kts 255°
2026-05-04 20:03 55.99030 37.54033 1997 ft 151 kts 253°
2026-05-04 20:03 55.98828 37.52757 1670 ft 152 kts 255°
2026-05-04 20:04 55.98569 37.50988 1424 ft 143 kts 255°
2026-05-04 20:04 55.98320 37.49301 1234 ft 142 kts 255°
2026-05-04 20:04 55.98063 37.47601 1041 ft 142 kts 255°
2026-05-04 20:04 55.97803 37.45906 859 ft 140 kts 255°
2026-05-04 20:05 55.97550 37.44250 679 ft 138 kts 255°
2026-05-04 20:05 55.97323 37.42727 638 ft 96 kts 256°
2026-05-04 20:05 55.97226 37.42043 638 ft 33 kts 255°
2026-05-04 20:05 55.97161 37.41615 638 ft 38 kts 256°
2026-05-04 20:06 55.97156 37.41358 638 ft 13 kts 321°
2026-05-04 20:06 55.97230 37.41315 638 ft 11 kts 345°
2026-05-04 20:06 55.97313 37.41275 638 ft 14 kts 345°
2026-05-04 20:06 55.97420 37.41224 638 ft 16 kts 345°
2026-05-04 20:07 55.97494 37.41190 638 ft 3 kts 349°
2026-05-04 20:07 55.97542 37.41241 638 ft 15 kts 64°
2026-05-04 20:07 55.97572 37.41434 638 ft 16 kts 75°
2026-05-04 20:07 55.97622 37.41597 638 ft 15 kts 14°
2026-05-04 20:08 55.97723 37.41557 638 ft 15 kts 346°
2026-05-04 20:08 55.97804 37.41524 638 ft 4 kts
2026-05-04 20:08 55.97820 37.41538 638 ft 2 kts 42°
2026-05-04 20:08 55.97831 37.41582 638 ft 4 kts 73°
2026-05-04 20:09 55.97839 37.41634 638 ft 3 kts 75°
2026-05-04 20:09 55.97839 37.41637 638 ft 0 kts 75°